Lexington, KY

2:50 PM EDT on September 24, 2017 (GMT -0400)
Blue Grass

Weather History for KLEX - March, 2013

Change the Weather History Date:

Tuesday, March 5, 2013

  Actual Average Record
Temperature  
Mean Temperature 38 °F 42 °F  
Max Temperature 46 °F 52 °F 78 °F (1983)
Min Temperature 29 °F 33 °F -2 °F (1960)
Degree Days  
Heating Degree Days 27 23  
Month to date heating degree days 161 118  
Since 1 July heating degree days 3669 3689  
Cooling Degree Days 0 0  
Month to date cooling degree days 0 0  
Year to date cooling degree days 0 0  
Moisture  
Dew Point 37 °F    
Average Humidity 74    
Maximum Humidity 96    
Minimum Humidity 51    
Precipitation  
Precipitation 0.75 in 0.13 in 2.20 in (1989)
Month to date precipitation 0.84 0.60  
Year to date precipitation 6.82 7.00  
Snow  
Snow 0.50 in 0.10 in 10.00 in (2015)
Month to date snowfall 1.2 0.3  
Since 1 July snowfall 9.7 11.6  
Snow Depth 0.00 in    
Sea Level Pressure  
Sea Level Pressure 29.74 in    
Wind  
Wind Speed 11 mph (SSW)    
Max Wind Speed 35 mph    
Max Gust Speed 47 mph    
Visibility 5 miles    
Events Rain , Snow    
T = Trace of Precipitation, MM = Missing Value Source: NWS Daily Summary

Daily Weather History Graph

Daily Weather History Graph

Search for Another Location

Airport or City:

Trip Planner

Search our weather history database for the weather conditions in past years. The results will help you decide how hot, cold, wet, or windy it might be!

Date:

Astronomy

Mar. 05, 2013 Rise Set
Actual Time 7:04 AM EST 6:36 PM EST
Civil Twilight 6:37 AM EST 7:02 PM EST
Nautical Twilight 6:07 AM EST 7:32 PM EST
Astronomical Twilight 5:36 AM EST 8:03 PM EST
Moon 2:11 AM EST (3/5) 12:18 PM EST (3/5)
Length of Visible Light 12h 24m
Length of Day
11h 32m
Last Quarter, 41% of the Moon is Illuminated
Mar 5
Last Quarter
Mar 11
New
Mar 19
First Quarter
Mar 27
Full
Apr 3
Last Quarter

Hourly Weather History & Observations

Time (EST) Temp. Windchill Dew Point Humidity Pressure Visibility Wind Dir Wind Speed Gust Speed Precip Events Conditions
12:54 AM 41.0 °F 36.4 °F 24.1 °F 51% 29.96 in 10.0 mi ESE 6.9 mph - N/A   Overcast
2:54 AM 1.0 °F -8.7 °F - N/A% 29.95 in 10.0 mi East 4.6 mph - N/A   Overcast
3:54 AM - - - N/A% 29.89 in 10.0 mi ESE 5.8 mph - N/A   Overcast
4:54 AM - - - N/A% 29.89 in 10.0 mi ESE 5.8 mph - N/A   Overcast
5:17 AM - - - N/A% 29.90 in 6.0 mi East 6.9 mph - 0.02 in Rain Rain
5:54 AM - - - N/A% 29.89 in 10.0 mi ESE 4.6 mph - 0.05 in Rain Light Rain
6:54 AM - - - N/A% 29.86 in 10.0 mi ESE 10.4 mph - 0.01 in Rain Light Rain
7:54 AM - - - N/A% 29.87 in 9.0 mi SE 6.9 mph - 0.03 in Rain Light Rain
8:54 AM 1.0 °F -14.0 °F - N/A% 29.88 in 10.0 mi SE 9.2 mph - 0.01 in   Overcast
9:40 AM 1.4 °F -13.5 °F - N/A% 29.83 in 3.0 mi SE 9.2 mph - 0.00 in   Overcast
9:54 AM 41.0 °F 34.7 °F 37.4 °F 87% 29.86 in 4.0 mi SE 10.4 mph - 0.00 in   Haze
10:39 AM 41.0 °F 35.2 °F 39.2 °F 93% 29.79 in 1.8 mi SE 9.2 mph - 0.00 in Rain Light Rain
10:54 AM 41.0 °F 34.7 °F 39.2 °F 93% 29.79 in 2.5 mi ESE 10.4 mph - 0.01 in Rain Light Rain
11:54 AM 42.8 °F 36.2 °F 41.0 °F 93% 29.74 in 2.0 mi SE 12.7 mph - 0.00 in Rain Light Rain
12:54 PM 44.6 °F 40.2 °F 41.0 °F 87% 29.72 in 1.5 mi SE 8.1 mph - 0.04 in Rain Rain
1:54 PM - - - N/A% 29.65 in 4.0 mi SSE 10.4 mph - 0.13 in   Overcast
2:14 PM - - - N/A% 29.64 in 5.0 mi SSE 9.2 mph - 0.03 in   Overcast
2:54 PM 46.4 °F 43.5 °F 44.6 °F 93% 29.64 in 5.0 mi SSE 5.8 mph - 0.07 in Rain Light Rain
3:54 PM - - - N/A% 29.58 in 5.0 mi SE 5.8 mph - 0.09 in   Overcast
4:51 PM - - - N/A% 29.56 in 4.0 mi Calm Calm - 0.04 in   Overcast
4:54 PM - - - N/A% 29.56 in 3.0 mi Calm Calm - 0.04 in   Overcast
5:04 PM - - - N/A% 29.57 in 2.0 mi SW 4.6 mph - 0.03 in   Overcast
5:31 PM - - - N/A% 29.57 in 4.0 mi WSW 9.2 mph - 0.11 in   Overcast
5:52 PM - - - N/A% 29.58 in 5.0 mi West 24.2 mph 36.8 mph 0.15 in   Unknown
5:54 PM - - - N/A% 29.58 in 5.0 mi West 20.7 mph 36.8 mph 0.15 in   Unknown
6:16 PM - - - N/A% 29.62 in 4.0 mi West 29.9 mph 39.1 mph 0.04 in   Unknown
6:29 PM - - - N/A% 29.64 in 5.0 mi West 23.0 mph 33.4 mph 0.06 in   Unknown
6:54 PM - - - N/A% 29.67 in 5.0 mi West 24.2 mph 47.2 mph 0.09 in   Unknown
7:01 PM - - - N/A% 29.68 in 1.8 mi West 24.2 mph 33.4 mph 0.00 in   Unknown
7:54 PM - - - N/A% 29.70 in 1.0 mi West 24.2 mph 35.7 mph 0.02 in   Unknown
8:20 PM - - - N/A% 29.72 in 2.0 mi West 26.5 mph 34.5 mph 0.01 in   Unknown
8:23 PM - - - N/A% 29.72 in 3.0 mi West 19.6 mph 34.5 mph 0.01 in   Unknown
8:54 PM - - - N/A% 29.73 in 10.0 mi West 26.5 mph 39.1 mph 0.01 in   Overcast
9:54 PM - - - N/A% 29.74 in 4.0 mi West 16.1 mph 31.1 mph 0.00 in   Unknown
10:02 PM - - - N/A% 29.74 in 4.0 mi West 27.6 mph 36.8 mph 0.00 in   Unknown
10:13 PM - - - N/A% 29.75 in 5.0 mi West 24.2 mph 38.0 mph 0.00 in   Unknown
10:54 PM - - - N/A% 29.76 in 3.0 mi West 24.2 mph 33.4 mph 0.00 in   Unknown
11:47 PM - - - N/A% 29.76 in 2.5 mi West 24.2 mph 33.4 mph 0.00 in   Unknown
11:54 PM - - - N/A% 29.76 in 2.5 mi West 25.3 mph 35.7 mph 0.00 in   Unknown